Regional Weather Roundup
Issued by NWS

Home | Current Version | Previous Version | Graphics & Text | Print | Product List | Glossary On
Versions: 1 2 3 4 5 6 7 8 9 10 11 12 13 14 15 16 17 18 19 20 21 22 23 24 25 26 27 28 29 30 31 32 33 34 35 36 37 38 39 40 41 42 43 44 45 46 47 48 49 50
000
ASUS43 KDTX 190410
RWRMI
MICHIGAN HOURLY REGIONAL WEATHER ROUNDUP
NATIONAL WEATHER SERVICE DETROIT/PONTIAC MI
1200 AM EDT SUN APR 19 2015

NOTE: "FAIR" INDICATES FEW OR NO CLOUDS BELOW 12,000 FEET WITH NO
SIGNIFICANT WEATHER AND/OR OBSTRUCTION TO VISIBILITY.

MIZ047>049-052>055-059>063-066>070-074>076-081>083-190500-
SOUTHEAST LOWER MICHIGAN

CITY           SKY/WX    TMP DP  RH WIND       PRES   REMARKS
ADRIAN         MOCLDY    51  31  46 E12       30.10F
ALMA           CLEAR     42  34  72 E7        30.18R
ANN ARBOR      MOCLDY    50  30  46 NE8       30.13F
BAD AXE        CLEAR     40  29  64 NE7       30.19F
CARO           CLEAR     41  30  63 CALM      30.18R
DETROIT CITY   PTCLDY    47  30  51 NE5       30.17R
DETROIT        MOCLDY    50  30  46 N8        30.14F
FLINT          PTCLDY    46  29  51 E9        30.18R
GROSSE ILE     MOCLDY    46  34  61 NE14G20   30.13S
HILLSDALE      MOCLDY    54  19  25 E13       30.08F
HOWELL         PTCLDY    47  27  46 E6        30.16R

CITY           SKY/WX    TMP DP  RH WIND       PRES   REMARKS
JACKSON        MOCLDY    53  19  26 E12       30.11F
LAMBERTVILLE   MOCLDY    50  32  50 NE7       30.11F
LANSING        PTCLDY    46  26  45 E9        30.16R
LAPEER         FAIR      43  29  58 E6        30.18R
MASON          PTCLDY    47  24  40 NE7       30.14S
PONTIAC        PTCLDY    46  29  51 NE10      30.15R
PORT HOPE        N/A     42  34  73 NE13      30.19S
PORT HURON     PTCLDY    39  32  75 NE7       30.17S WCI  34
TRI CITIES     CLEAR     45  34  65 E8        30.18S
TROY           PTCLDY    48  29  49 NE7       30.18R
SAGINAW HB     CLEAR     37  32  81 E3        30.18R
$$
MIZ043>046-050>051-056>058-064>065-071>073-077>080-190500-
SOUTHWEST LOWER MICHIGAN

CITY           SKY/WX    TMP DP  RH WIND       PRES   REMARKS
BATTLE CREEK   MOCLDY    56  24  29 E12       30.09F
BENTON HARBOR  MOCLDY    59  35  40 E13       30.02F
BIG RAPIDS     CLEAR     46  26  47 E12       30.15S
COLDWATER      MOCLDY    55  19  24 E12       30.07F
FREMONT        FAIR      50  18  28 E12G20    30.12R
HOLLAND        MOCLDY    55  31  39 E15       30.07F
GRAND RAPIDS   PTCLDY    51  27  39 E18G24    30.11F
IONIA          FAIR      48  32  55 E10       30.14S
KALAMAZOO      MOCLDY    57  26  30 E7        30.08F
LUDINGTON      CLEAR     53   8  16 E17G23    30.10S
MARSHALL       MOCLDY    53  22  30 E5        30.09F
MOUNT PLEASANT CLEAR     40  31  69 NE3       30.17S
MUSKEGON       PTCLDY    54  20  26 E14       30.09S
SOUTH HAVEN    MOCLDY    59  25  27 E10       30.04F
$$
MIZ016>042-190500-
NORTHERN LOWER MICHIGAN

CITY           SKY/WX    TMP DP  RH WIND       PRES   REMARKS
ALPENA         CLEAR     35  28  75 CALM      30.22F
BEAVER ISLAND  CLEAR     41  27  57 E13G18    30.16F
BELLAIRE       CLEAR     49  21  32 E5        30.15F
CADILLAC       CLEAR     44  24  46 E10       30.14R
CHARLEVOIX     CLEAR     49  23  35 SE7       30.19S
FRANKFORT      CLEAR     54  19  25 SE9       30.10S
GAYLORD        CLEAR     43  23  45 SE6       30.17F
GRAYLING       CLEAR     40  21  47 E6        30.18F
HARBOR SPRINGS CLEAR     46  24  42 E9        30.17S
HOUGHTON LAKE  CLEAR     38  27  64 E8        30.17F WCI  32
MANISTEE       CLEAR     52  21  30 E13G21    30.10S
OSCODA         CLEAR     34  29  84 CALM      30.21S
PELLSTON       CLEAR     45  24  43 E7        30.18F
ROGERS CITY    CLEAR     33  30  89 SE5       30.22F WCI  29
TRAVERSE CITY  CLEAR     48  28  46 SE7       30.13F
$$
MIZ007>008-015-190500-
EASTERN UPPER MICHIGAN

CITY           SKY/WX    TMP DP  RH WIND       PRES   REMARKS
KINROSS        CLEAR     34  28  80 E3        30.20F
MACKINAC ISLAN CLEAR     40  25  55 E12       30.19F WCI  33
NEWBERRY       CLEAR     33  29  86 E3        30.17F
S. S. MARIE    CLEAR     36  28  73 E5        30.21F WCI  32
MUNISING         N/A     32  27  81 S5        30.16F WCI  27
$$
MIZ004>006-011>014-085-190500-
CENTRAL UPPER MICHIGAN

CITY           SKY/WX    TMP DP  RH WIND       PRES   REMARKS
MANISTIQUE     CLEAR     38  28  66 NE6       30.15F WCI  33
ESCANABA       CLEAR     43  28  56 NE6       30.15S
MENOMINEE      PTCLDY    45  30  57 E18G25    30.10F
SAWYER-GWINN   PTCLDY    34  28  80 NE5       30.14F WCI  30
$$
MIZ001>003-009>011-084-190500-
WESTERN UPPER MICHIGAN

CITY           SKY/WX    TMP DP  RH WIND       PRES   REMARKS
IRON MOUNTAIN  PTCLDY    42  28  57 NE6       30.11F
HOUGHTON       CLEAR     33  29  85 E12       30.12F WCI  24
COPPER HARBOR    N/A     40  26  57 S3        30.14F
IRONWOOD       MOCLDY    54  19  26 SE8G16    29.99F
$$

ABBREVIATIONS USED IN REMARKS
   TC - TEMPERATURE IN CELSIUS
  WCI - WIND CHILL INDEX
   HX - HEAT INDEX
  VSB - VISIBILITY




USA.gov is the U.S. government's official web portal to all federal, state and local government web resources and services.